Regional Weather Roundup
Issued by NWS

Home | Current Version | Previous Version | Text Only | Print | Product List | Glossary Off
Versions: 1 2 3 4 5 6 7 8 9 10 11 12 13 14 15 16 17 18 19 20 21 22 23 24 25 26 27 28 29 30 31 32 33 34 35 36 37 38 39 40 41 42 43 44 45 46 47 48 49 50

000
ASUS45 KPSR 211710
RWRAZ

ARIZONA HOURLY REGIONAL WEATHER ROUNDUP
NATIONAL WEATHER SERVICE PHOENIX AZ
1000 AM MST WED FEB 21 2018

NOTE: FAIR INDICATES FEW OR NO CLOUDS BELOW 12,000 FEET WITH NO
SIGNIFICANT WEATHER AND/OR OBSTRUCTIONS TO VISIBILITY.

AZZ001>003-036-211800-
NORTHWEST ARIZONA

CITY           SKY/WX    TMP DP  RH WIND       PRES   REMARKS
BULLHEAD CITY  CLOUDY    39   5  24 CALM      30.16S
KINGMAN        CLOUDY    34   4  28 CALM      30.08R
$$

AZZ004>008-015-016-018-211800-
NORTH CENTRAL ARIZONA

CITY           SKY/WX    TMP DP  RH WIND       PRES   REMARKS
GRAND CANYON   MOSUNNY   28   2  32 SE7       30.02R WCI  21
WILLIAMS       MOSUNNY   28   7  40 SE13      29.99S WCI  18
PRESCOTT       SUNNY     34  11  38 E3        30.05S
FLAGSTAFF      SUNNY     25   7  46 SW9       30.00S WCI  15
PAYSON         SUNNY     37  14  38 VRB6G12   30.06S WCI  33
PAGE           MOSUNNY   31   6  35 NW5       30.11R WCI  26
$$

AZZ009>014-017-211800-
NORTHEAST ARIZONA

CITY           SKY/WX    TMP DP  RH WIND       PRES   REMARKS
WINSLOW        SUNNY     28   4  35 SE3       30.07F
SAINT JOHNS    SUNNY     36  23  59 NE5       30.05S WCI  32
WINDOW ROCK    CLOUDY    27  16  63 W3        30.08S
SHOW LOW       PTSUNNY   36  23  60 S16G22    30.06S WCI  26
$$

AZZ540-542>544-546-548-211800-
GREATER PHOENIX AREA

CITY           SKY/WX    TMP DP  RH WIND       PRES   REMARKS
PHOENIX        MOSUNNY   49  19  30 CALM      30.11R
BUCKEYE        SUNNY     46   7  19 NW5       30.13S
GLENDALE       SUNNY     48  16  27 CALM      30.13S
LUKE AFB       SUNNY     49  17  28 E5        30.10S
DEER VALLEY    SUNNY     48  12  23 W5        30.10R
SCOTTSDALE     SUNNY     50  17  27 SW5       30.12R
MESA-FALCON    SUNNY     48  19  32 CALM      30.12R
MESA-GATEWAY   MOSUNNY   48  25  40 SE9       30.13R
CHANDLER       SUNNY     46  25  42 CALM      30.12R
$$

AZZ539-553-211800-
SOUTHWEST MARICOPA COUNTY AND PINAL COUNTY

CITY           SKY/WX    TMP DP  RH WIND       PRES   REMARKS
CASA GRANDE      N/A     45  21  38 CALM      30.12R
GILA BEND      FAIR      46  11  23 N6        30.12S
$$

AZZ503-504-507>509-211800-
SOUTHEAST ARIZONA

CITY           SKY/WX    TMP DP  RH WIND       PRES   REMARKS
TUCSON         SUNNY     48  26  42 S5        30.12R
DAVIS-MONTHAN  SUNNY     47  31  53 CALM      30.10R
RYAN FIELD     SUNNY     48  27  43 E3        30.13R
NOGALES        MOSUNNY   50  32  50 S14       30.08S
SIERRA VISTA   SUNNY     47  29  50 CALM      30.09S
DOUGLAS        PTSUNNY   49  34  56 S8        30.09S
SAFFORD        MOSUNNY   47  29  49 SE8       30.09R
$$

AZZ532-211800-
SOUTHWEST ARIZONA

CITY           SKY/WX    TMP DP  RH WIND       PRES   REMARKS
YUMA           MOSUNNY   50  14  23 N5        30.14R
$$

CAZ041-043-047-048-061-525>527-560>570-211800-
SOUTHERN CALIFORNIA

CITY           SKY/WX    TMP DP  RH WIND       PRES   REMARKS
DOWNTOWN L.A.  SUNNY     54  24  31 CALM      30.14R
L.A. AIRPORT   MOSUNNY   54  26  34 E7        30.14S
SAN DIEGO      PTSUNNY   52  30  43 SE6       30.17S
BURBANK        SUNNY     51  20  29 SW3       30.13R
ONTARIO        MOSUNNY   48  22  35 SE6       30.14R
RIVERSIDE      MOSUNNY   49  25  39 N5        30.14R
PALM SPRINGS   MOSUNNY   52  19  27 CALM      30.14R
EL CENTRO NAS  PTSUNNY   55  17  22 W12       30.16R
IMPERIAL       MOSUNNY   53  23  31 CALM      30.14R
BLYTHE         PTSUNNY   43   6  21 SE3       30.15R
NEEDLES        CLOUDY    43  -2  15 CALM      30.15R
$$

NVZ020-UTZ003-211800-
SOUTHERN NEVADA-UTAH

CITY           SKY/WX    TMP DP  RH WIND       PRES   REMARKS
LAS VEGAS      CLOUDY    42   5  21 CALM      30.13R
SALT LAKE CITY PTSUNNY   24   9  52 SE5       30.17R WCI  18
$$

NMZ009-TXZ055-211800-
NEW MEXICO-WEST TEXAS

CITY           SKY/WX    TMP DP  RH WIND       PRES   REMARKS
ALBUQUERQUE    MOSUNNY   38  20  48 CALM      30.13S
EL PASO        MOSUNNY   52  35  52 S8        30.12R
$$


........................KEY........................
SKY/WX - SKY CONDITION/WEATHER
TMP    - TEMPERATURE IN FAHRENHEIT
DP     - DEW POINT IN FAHRENHEIT
RH     - RELATIVE HUMIDITY IN PERCENT
WIND   - DIRECTION AND SPEED IN MILES PER HOUR (MPH)
VRB    - VARIABLE WIND DIRECTION
PRES   - MEAN SEA LEVEL PRESSURE IN INCHES OF MERCURY
         F - FALLING PRESSURE   R - RISING PRESSURE
         S - STEADY PRESSURE
VSB    - VISIBILITY IN MILES
HX     - HEAT INDEX IN FAHRENHEIT
WCI    - WIND CHILL INDEX IN FAHRENHEIT
TC     - TEMPERATURE IN CELSIUS WHICH IS ALSO KNOWN AS
         TEMPERATURE IN CENTIGRADE
AFB    - AIR FORCE BASE
         LUKE AFB IS LUKE AIR FORCE BASE
         DAVIS-MONTHAN IS DAVIS-MONTHAN AIR FORCE BASE
NAS    - NAVAL AIR STATION
         EL CENTRO NAS IS EL CENTRO NAVAL AIR STATION
N/A    - NOT AVAILABLE




USA.gov is the U.S. government's official web portal to all federal, state and local government web resources and services.